Weather History for Pasco, WA

Change the Weather History Date:

Tuesday, November 8, 2011

  Actual Average Record
Temperature  
Mean Temperature 42 °F 44 °F  
Max Temperature 57 °F 54 °F 68 °F (1996)
Min Temperature 26 °F 34 °F 21 °F (1993)
Degree Days  
Heating Degree Days 23 21  
Month to date heating degree days 213 159  
Since 1 July heating degree days 606 677  
Cooling Degree Days 0 0  
Month to date cooling degree days 0 0  
Year to date cooling degree days 632 710  
Moisture  
Dew Point 30 °F    
Average Humidity 65    
Maximum Humidity 92    
Minimum Humidity 38    
Precipitation  
Precipitation 0.00 in - 0.55 in (1968)
Month to date precipitation T  
Year to date precipitation 5.96  
Snow  
Snow 0.00 in - - ()
Snow Depth 0.00 in    
Sea Level Pressure  
Sea Level Pressure 30.31 in    
Wind  
Wind Speed 3 mph (SW)    
Max Wind Speed 14 mph    
Max Gust Speed 16 mph    
Visibility 10 miles    
Events      
T = Trace of Precipitation, MM = Missing Value Source: NWS Daily Summary

Daily Weather History Graph

Daily Weather History Graph

Search for Another Location

Airport:

Trip Planner

Search our weather history database for the weather conditions in past years. The results will help you decide how hot, cold, wet, or windy it might be!

Date:

Astronomy

Nov. 08, 2011 Rise Set
Actual Time 6:47 AM PST 4:32 PM PST
Civil Twilight 6:15 AM PST 5:04 PM PST
Nautical Twilight 5:39 AM PST 5:40 PM PST
Astronomical Twilight 5:04 AM PST 6:15 PM PST
Moon 3:17 PM PST (11/8) 4:47 AM PST (11/8)
Length of Visible Light 10h 48m
Length of Day
9h 44m
Waxing Gibbous, 96% of the Moon is Illuminated
Nov 8
Waxing Gibbous
Nov 10
Full
Nov 18
Last Quarter
Nov 24
New
Dec 2
First Quarter

Hourly Weather History & Observations

Time (PST) Temp. Windchill Dew Point Humidity Pressure Visibility Wind Dir Wind Speed Gust Speed Precip Events Conditions
12:53 AM 28.0 °F - 24.1 °F 85% 30.26 in 10.0 mi Calm Calm - N/A   Clear
1:53 AM 28.0 °F - 26.1 °F 92% 30.26 in 9.0 mi Calm Calm - N/A   Clear
2:53 AM 27.0 °F - 24.1 °F 89% 30.26 in 9.0 mi Calm Calm - N/A   Clear
3:53 AM 27.0 °F 20.5 °F 24.1 °F 89% 30.27 in 10.0 mi SW 5.8 mph - N/A   Clear
4:53 AM 37.0 °F - 33.1 °F 86% 30.28 in 10.0 mi Calm Calm - N/A   Clear
5:53 AM 28.9 °F 23.9 °F 26.1 °F 89% 30.29 in 10.0 mi North 4.6 mph - N/A   Clear
6:53 AM 30.9 °F - 28.0 °F 89% 30.30 in 10.0 mi Calm Calm - N/A   Clear
7:53 AM 37.0 °F 33.3 °F 32.0 °F 82% 30.32 in 10.0 mi SSW 4.6 mph - N/A   Clear
8:53 AM 44.1 °F 40.1 °F 37.0 °F 76% 30.32 in 10.0 mi SW 6.9 mph - N/A   Clear
9:53 AM 46.9 °F - 35.1 °F 63% 30.33 in 10.0 mi SSW 12.7 mph - N/A   Clear
10:53 AM 50.0 °F - 34.0 °F 54% 30.32 in 10.0 mi South 8.1 mph - N/A   Clear
11:53 AM 53.1 °F - 35.1 °F 50% 30.30 in 10.0 mi SSW 6.9 mph - N/A   Clear
12:53 PM 55.9 °F - 34.0 °F 44% 30.30 in 10.0 mi SSW 5.8 mph - N/A   Clear
1:53 PM 55.9 °F - 32.0 °F 40% 30.29 in 10.0 mi South 5.8 mph - N/A   Clear
3:53 PM 55.0 °F - 30.9 °F 40% 30.28 in 10.0 mi East 5.8 mph - N/A   Clear
5:53 PM 37.0 °F 34.5 °F 30.0 °F 76% 30.31 in 10.0 mi NW 3.5 mph - N/A   Clear
6:53 PM 35.1 °F - 28.9 °F 78% 30.32 in 10.0 mi Calm Calm - N/A   Unknown
7:53 PM 34.0 °F 29.8 °F 28.9 °F 82% 30.33 in 10.0 mi NNW 4.6 mph - N/A   Clear
9:53 PM 32.0 °F - 28.0 °F 85% 30.35 in 10.0 mi Calm Calm - N/A   Overcast
10:53 PM 32.0 °F 28.7 °F 28.0 °F 85% 30.36 in 10.0 mi North 3.5 mph - N/A   Mostly Cloudy
11:53 PM 34.0 °F 28.8 °F 30.0 °F 85% 30.37 in 10.0 mi NNW 5.8 mph - N/A   Mostly Cloudy